Notices

What's New in latest Release from April 7th, 2021:

- Updated Glossary, including Speed of Maximum Gust, and Total Hourly Precipitation

- Updated national and regional climate services offices contacts and prices information

- Addition of station inventory lists for 1981-2010, 1971-2000, and 1961-1990 Normals.

If you haven't already, please take our survey and provide feedback about our website: https://eccc.sondage-survey.ca/f/LanguageSelection.aspx?s=442ca660-fcf1-47c0-95a9-59707d6fd709

Hourly Data Report for May 08, 2021

CLYDE RIVER A
NUNAVUT
Current Station Operator: NAVCAN

70°29'09.000" N
68°31'01.000" W
26.50 m
2400804
71090
YCY

Download Data

Hourly Data (May 2021)
Hourly Data Report for May 8, 2021
TIME
LST
Temp Definition
°C
Dew Point Definition
°C
Rel Hum Definition
%
Precip. Amount Definition
mm

Wind Dir Definition
10's deg

Wind Spd Definition
km/h
Visibility Definition
km
Stn Press Definition
kPa
Hmdx Definition


Wind Chill Definition


Weather Definition


00:00 -3.9 -4.2 98 0.0 34 11 8.1 102.13   -8 Snow
01:00 -4.1 -4.2 99 0.0 34 9 6.4 102.15   -8 Snow
02:00 -4.3 -4.4 99 0.0 35 9 11.3 102.16   -8 Snow
03:00 -4.2 -4.3 99 0.0 36 8 2.4 102.16   -8 Snow
04:00 -4.2 -4.3 99 0.0 36 8 3.6 102.18   -8 Snow
05:00 -4.3 -4.6 98 0.2 36 8 4.0 102.21   -8 Snow
06:00 -4.1 -4.4 98 0.0 1 9 3.2 102.20   -8 Snow
07:00 -3.9 -4.5 96 0.2 36 8 3.6 102.23   -7 Snow
08:00 -3.6 -4.3 95 0.0 2 9 8.1 102.22   -7 Snow
09:00 -3.3 -4.1 94 0.0 5 9 16.1 102.22   -7 LegendNANA
10:00 -3.5 -4.3 94 0.0 5 8 14.5 102.22   -7 Snow
11:00 -3.4 -4.1 95 0.0 8 13 16.1 102.19   -8 Snow
12:00 -3.1 -3.8 95 0.0 9 11 16.1 102.19   -7 Snow
13:00 -3.0 -3.6 96 0.0 7 13 6.4 102.18   -8 Snow
14:00 -3.2 -3.8 96 0.0 7 15 9.7 102.16   -8 Snow
15:00 -3.3 -4.0 95 0.0 7 18 9.7 102.15   -9 Snow
16:00 -3.5 -4.1 96 0.2 7 17 4.8 102.16   -9 Snow
17:00 -3.7 -4.1 97 0.0 7 13 4.8 102.14   -9 Snow
18:00 -3.8 -3.9 99 0.2 9 9 4.8 102.11   -8 Snow
19:00 -4.1 -4.2 99 0.0 9 15 14.5 102.10   -9 Snow
20:00 -4.3 -4.4 99 0.0 8 11 16.1 102.09   -9 Snow
21:00 -4.4 -4.5 99 0.2 7 11 4.8 102.07   -9 Snow
22:00 -4.5 -4.6 99 0.2 8 13 4.0 102.04   -10 Snow
23:00 -4.7 -4.8 99 0.2 7 9 4.0 102.02   -9 Snow

Notes on Data Quality.

Legend

  • E = Estimated
  • M = Missing
  • NA = Not Available*
  • [empty] = Indicates an unobserved value
Date modified: